{"data":{"norad_id":67481,"epoch":"2026-09-20T21:58:55.000704Z","epoch_age_seconds":60685,"freshness":"FRESH","line1":"1 67481U 25082C   26263.91591436  .00025529  00000+0  17524-3 0  9994","line2":"2 67481  41.4749  84.4790 0014740 332.8960  27.1113 15.73940786308293","mean_motion":15.73940786,"eccentricity":0.001474,"inclination_deg":41.4749,"raan_deg":84.479,"arg_perigee_deg":332.896,"mean_anomaly_deg":27.1113,"bstar":0.00017524,"rev_number":30829,"period_min":91.490100060219,"perigee_km":337.73318250156,"apogee_km":357.56079369848,"semimajor_km":6725.7839881,"source":"CELESTRAK","updated_at":"2026-09-21T09:00:16.669485Z"}}